Location: Wanzleben
(52.0609°N, 11.4408°E)
Time: 16:21:58
(UTC+00:00)

CARTOSAT-1 - Pass Details

Date: 18 September 2020
Orbit: 616 x 619 km, 97.8° (Epoch: 22 October)

Event Time Altitude Azimuth Distance (km) Brightness Sun altitude
Exits shadow 20:29:29 47° 5° (N) 822 4.3 -27.0°
Drops below altitude 10° 20:32:41 10° 350° (N) 1,997 6.8 -27.3°
Sets 20:34:53 0° 348° (NNW) 2,907 7.9 -27.6°
